N960GC MDLR-MDLR

Flight info

Callsign N960GC
Flight time N/A
Altitude 4000
Route VFR
Aircraft B407/L-SDGRY/S

Departure

Time 2026-04-21 19:47
Airport Casa De Campo International Airport (MDLR)

Arrival

Time N/A
Airport Casa De Campo International Airport (MDLR)
Time Latitude Longitude Altitude Speed Heading
2026-04-21 19:30 18.44989 -68.91656 244 ft 0 kts
2026-04-21 19:31 18.45030 -68.91648 250 ft 15 kts
2026-04-21 19:31 18.45067 -68.91634 256 ft 6 kts 111°
2026-04-21 19:31 18.45044 -68.91608 292 ft 26 kts 185°
2026-04-21 19:31 18.44607 -68.91651 451 ft 94 kts 179°
2026-04-21 19:32 18.43837 -68.91626 539 ft 119 kts 172°
2026-04-21 19:32 18.43003 -68.91504 591 ft 121 kts 165°
2026-04-21 19:32 18.42256 -68.91328 523 ft 100 kts 164°
2026-04-21 19:32 18.41636 -68.91418 546 ft 95 kts 207°
2026-04-21 19:33 18.41396 -68.91790 507 ft 93 kts 245°
2026-04-21 19:33 18.41542 -68.92473 377 ft 97 kts 290°
2026-04-21 19:33 18.41718 -68.92996 262 ft 63 kts 251°
2026-04-21 19:33 18.41648 -68.93314 135 ft 22 kts 201°
2026-04-21 19:34 18.41620 -68.93335 85 ft 1 kts 166°
2026-04-21 19:34 18.41617 -68.93333 76 ft 0 kts 181°
2026-04-21 19:45 18.41618 -68.93333 76 ft 0 kts 185°
2026-04-21 19:45 18.41617 -68.93333 79 ft 1 kts 191°
2026-04-21 19:46 18.41488 -68.93360 162 ft 50 kts 189°
2026-04-21 19:46 18.40946 -68.93409 322 ft 98 kts 167°
2026-04-21 19:46 18.40427 -68.92925 465 ft 110 kts 110°
2026-04-21 19:46 18.40317 -68.92107 570 ft 111 kts 92°
2026-04-21 19:47 18.40338 -68.91299 848 ft 112 kts 87°
2026-04-21 19:47 18.40400 -68.90430 1101 ft 127 kts 90°
2026-04-21 19:47 18.40447 -68.89474 1235 ft 133 kts 86°
2026-04-21 19:47 18.40569 -68.88538 1426 ft 120 kts 78°
2026-04-21 19:48 18.40762 -68.87683 1748 ft 127 kts 78°
2026-04-21 19:48 18.40974 -68.86751 1834 ft 132 kts 76°
2026-04-21 19:48 18.41209 -68.85813 1942 ft 134 kts 75°
2026-04-21 19:48 18.41461 -68.84859 2019 ft 137 kts 74°
2026-04-21 19:49 18.41733 -68.83887 2034 ft 139 kts 73°
2026-04-21 19:49 18.42020 -68.82907 2028 ft 141 kts 73°
2026-04-21 19:49 18.42312 -68.81930 2022 ft 142 kts 72°
2026-04-21 19:49 18.42614 -68.80938 2019 ft 143 kts 72°
2026-04-21 19:50 18.42820 -68.80263 2018 ft 143 kts 73°
2026-04-21 19:50 18.43230 -68.78930 2023 ft 145 kts 72°
2026-04-21 19:50 18.43547 -68.77915 2025 ft 146 kts 72°
2026-04-21 19:50 18.43868 -68.76891 2026 ft 148 kts 72°
2026-04-21 19:51 18.44193 -68.75860 2026 ft 149 kts 72°
2026-04-21 19:51 18.44522 -68.74824 2026 ft 150 kts 72°
2026-04-21 19:51 18.44853 -68.73777 2026 ft 151 kts 73°
2026-04-21 19:51 18.45186 -68.72727 2026 ft 152 kts 73°
2026-04-21 19:52 18.45524 -68.71665 2026 ft 153 kts 73°
2026-04-21 19:52 18.45861 -68.70601 2026 ft 153 kts 73°
2026-04-21 19:52 18.46195 -68.69546 2026 ft 154 kts 73°
2026-04-21 19:52 18.46533 -68.68479 1999 ft 151 kts 73°
2026-04-21 19:53 18.46860 -68.67429 2006 ft 151 kts 73°
2026-04-21 19:53 18.47186 -68.66379 2017 ft 151 kts 74°
2026-04-21 19:53 18.47512 -68.65333 2008 ft 149 kts 74°
2026-04-21 19:53 18.47836 -68.64294 2015 ft 149 kts 74°
2026-04-21 19:54 18.48161 -68.63256 2022 ft 149 kts 74°
2026-04-21 19:54 18.48490 -68.62210 2026 ft 150 kts 74°
2026-04-21 19:54 18.48820 -68.61170 2027 ft 150 kts 74°
2026-04-21 19:54 18.49153 -68.60126 2027 ft 150 kts 74°
2026-04-21 19:55 18.49488 -68.59080 2027 ft 151 kts 73°
2026-04-21 19:55 18.49819 -68.58045 2026 ft 151 kts 74°
2026-04-21 19:55 18.50153 -68.56999 2026 ft 151 kts 74°
2026-04-21 19:55 18.50490 -68.55945 2026 ft 151 kts 74°
2026-04-21 19:56 18.50825 -68.54892 2026 ft 151 kts 74°
2026-04-21 19:56 18.51158 -68.53844 2026 ft 152 kts 74°
2026-04-21 19:56 18.51494 -68.52786 2026 ft 152 kts 74°
2026-04-21 19:56 18.51570 -68.52556 2026 ft 153 kts 73°
2026-04-21 19:57 18.51887 -68.51728 2030 ft 152 kts 71°
2026-04-21 19:57 18.52200 -68.50672 2027 ft 151 kts 79°
2026-04-21 19:57 18.52405 -68.49586 2027 ft 151 kts 83°
2026-04-21 19:57 18.52576 -68.48504 2027 ft 151 kts 83°
2026-04-21 19:58 18.52743 -68.47397 2026 ft 152 kts 84°
2026-04-21 19:58 18.52905 -68.46313 2026 ft 152 kts 84°
2026-04-21 19:58 18.53067 -68.45214 2026 ft 152 kts 84°
2026-04-21 19:58 18.53229 -68.44115 2027 ft 152 kts 84°
2026-04-21 19:59 18.53390 -68.43011 2026 ft 152 kts 84°
2026-04-21 19:59 18.53564 -68.41939 2009 ft 143 kts 80°
2026-04-21 19:59 18.53765 -68.40987 1763 ft 130 kts 78°
2026-04-21 19:59 18.53986 -68.40071 1571 ft 128 kts 77°
2026-04-21 20:00 18.54227 -68.39169 1392 ft 127 kts 76°
2026-04-21 20:00 18.54469 -68.38275 1263 ft 129 kts 80°
2026-04-21 20:00 18.54676 -68.37384 1067 ft 125 kts 79°
2026-04-21 20:00 18.54883 -68.36492 825 ft 125 kts 78°
2026-04-21 20:01 18.55168 -68.35625 608 ft 131 kts 60°
2026-04-21 20:01 18.55890 -68.35046 456 ft 130 kts 20°
2026-04-21 20:01 18.56631 -68.35044 328 ft 91 kts 311°
2026-04-21 20:01 18.56701 -68.35505 172 ft 53 kts 246°
2026-04-21 20:02 18.56551 -68.35772 97 ft 24 kts 206°
2026-04-21 20:02 18.56457 -68.35794 73 ft 2 kts 243°
2026-04-21 20:02 18.56451 -68.35800 57 ft 1 kts 273°
2026-04-21 20:02 18.56449 -68.35801 51 ft 1 kts 275°
2026-04-21 20:03 18.56449 -68.35802 51 ft 0 kts 273°
2026-04-21 20:07 18.56450 -68.35803 54 ft 1 kts 283°
2026-04-21 20:07 18.56486 -68.35795 60 ft 13 kts
2026-04-21 20:07 18.56531 -68.35797 56 ft 2 kts 38°
2026-04-21 20:07 18.56553 -68.35511 206 ft 77 kts 89°
2026-04-21 20:08 18.56967 -68.35043 656 ft 108 kts 22°
2026-04-21 20:08 18.57763 -68.34795 783 ft 127 kts
2026-04-21 20:08 18.58709 -68.34717 829 ft 147 kts 356°
2026-04-21 20:08 18.59705 -68.35096 912 ft 154 kts 325°
2026-04-21 20:09 18.60575 -68.35716 862 ft 148 kts 318°
2026-04-21 20:09 18.61409 -68.36371 956 ft 154 kts 320°
2026-04-21 20:09 18.62248 -68.37051 985 ft 142 kts 315°
2026-04-21 20:09 18.63049 -68.37710 974 ft 149 kts 318°
2026-04-21 20:10 18.63746 -68.38468 632 ft 131 kts 288°
2026-04-21 20:10 18.63828 -68.39319 262 ft 109 kts 255°
2026-04-21 20:10 18.63834 -68.40059 231 ft 82 kts 269°
2026-04-21 20:10 18.63855 -68.40531 133 ft 43 kts 263°
2026-04-21 20:11 18.63862 -68.40743 113 ft 26 kts 269°
2026-04-21 20:11 18.63911 -68.40879 97 ft 12 kts 333°
2026-04-21 20:11 18.63955 -68.40884 90 ft 2 kts 145°
2026-04-21 20:11 18.63945 -68.40880 74 ft 3 kts 170°
2026-04-21 20:12 18.63943 -68.40881 71 ft 1 kts 173°
2026-04-21 20:12 18.63944 -68.40881 69 ft 0 kts 179°